World > North America > United States > Michigan

Harbor Beach, Michigan Regional Weather

Lat: 43.85N, Lon: 82.65W
Wx Zone: MIZ049Web Search
Harbor Beach Weather Warning NWS WEATHER ALERT FOR THE HARBOR BEACH, MI AREA - Issued: 806 PM EDT Thu Oct 22 2020 Harbor Beach Weather Warning  

Helpful Tip: Type the letters wx in the search engine next time you need to find us.

Feedback
Harbor Beach Weather Map
UTC Time: 10/23/2020, 03:14
Your Time:

Harbor Beach, MI Regional Weather

Expires:202010230400;;691096
ASUS43 KDTX 230310
RWRMI 
MICHIGAN HOURLY REGIONAL WEATHER ROUNDUP
NATIONAL WEATHER SERVICE DETROIT/PONTIAC MI
1100 PM EDT THU OCT 22 2020

NOTE: "FAIR" INDICATES FEW OR NO CLOUDS BELOW 12,000 FEET WITH NO
SIGNIFICANT WEATHER AND/OR OBSTRUCTION TO VISIBILITY.


MIZ047>049-052>055-059>063-066>070-074>076-081>083-230400-
SOUTHEAST LOWER MICHIGAN
  
CITY           SKY/WX    TMP DP  RH WIND       PRES   REMARKS
ADRIAN         FOG       53  53 100 CALM      30.01F VSB 1/4          
ALMA           FOG       50  48  91 NE5       29.94F VSB 1/4          
ANN ARBOR      FOG       55  54  96 CALM      30.00F VSB 1/4          
BAD AXE        FOG       53  53 100 SE6       29.97F VSB 1/2          
CARO           MOCLDY    53  53  97 SE3       29.95F FOG              
DETROIT CITY   FOG       56  55  97 CALM      30.02F VSB 1/4          
DETROIT        MOCLDY    52  52 100 CALM      30.01F FOG              
FLINT          PTCLDY    60  56  86 S12       29.96F FOG              
GROSSE ILE     CLEAR     56  55  97 S3        30.00F FOG              
HILLSDALE      CLEAR     61  59  94 S5        29.99F                  
HOWELL         CLOUDY    58  58 100 SE8       29.98F FOG              

CITY           SKY/WX    TMP DP  RH WIND       PRES   REMARKS
JACKSON        CLEAR     59  57  93 SE7       29.97F FOG              
LAMBERTVILLE   CLEAR     61  60  95 S3        30.00F                  
LANSING        PTCLDY    59  57  93 SE10      29.94F FOG              
LAPEER         CLOUDY    58  58 100 SE7       29.99F FOG              
MASON          PTCLDY    58  57  97 SE9G16    29.96F FOG              
MONROE           N/A     55  53  93 CALM      30.00F FOG              
MT. CLEMENS    FOG       57  57 100 E7        30.00F VSB 7/8          
PONTIAC        FOG       57  57 100 SE9       29.99F VSB 1/4          
PORT HOPE        N/A     53  51  93 SE7       29.97F                  
PORT HURON     FOG       55  55 100 SE9G16    30.01F VSB 1/2          
TRI CITIES     FOG       50  46  86 E5        29.96F VSB 1/4          
MIDLAND        FOG       50  50 100 E5        29.94F VSB 1/2          
TROY           FOG       54  53  99 E3        30.03F VSB 1/2          
SAGINAW HB     FOG       50  50 100 CALM      29.94F VSB 1/2          
$$

SKY/WX - Weather  TMP - Temperature  DP - Dew Point  RH - Relative Humidity
WIND - Wind Direction/Speed PRES - Barometric Pressure VSB - Visibility
WCI - Wind Chill Index E13G22 Wind - East Wind 13 mph/Gusts of 22 mph